Wind_Speed
19 21 22 23 24 24 24 24 25 25 26 27 28 29 31 32 33 34 35 36 37 38 39 39 39 40 41 41 41 42 42 42 41 41 43 44 44 44 44 44 44 45 45
21 22 23 24 25 25 25 25 26 26 27 28 30 32 33 35 36 37 38 39 40 40 41 42 42 42 42 42 43 43 43 43 43 42 43 44 45 45 45 46 46 45 45
22 23 24 25 25 26 27 27 27 28 29 31 33 34 36 38 39 40 41 42 42 43 43 43 42 42 41 42 42 42 42 42 42 42 42 44 45 46 46 46 47 46 46
23 24 26 26 27 27 28 28 29 30 32 34 35 37 39 41 42 43 44 44 44 44 43 42 41 40 40 39 39 40 40 41 41 41 41 42 44 45 45 46 46 46 46
25 26 28 28 29 30 30 31 31 33 34 36 37 39 41 43 44 45 45 45 44 43 42 40 39 38 37 37 36 37 38 39 40 40 40 41 42 43 44 45 46 46 46
27 28 29 30 31 32 32 33 33 35 36 38 40 42 44 46 46 46 46 44 43 41 40 38 37 36 36 35 35 35 36 36 37 38 39 39 40 41 43 44 45 46 46
28 30 30 31 32 33 34 35 36 38 39 41 43 45 46 48 48 47 46 44 42 40 38 37 36 35 34 33 33 33 34 34 36 36 37 38 39 40 41 42 43 45 45
30 31 32 33 34 36 37 38 40 41 43 45 45 46 48 49 48 47 45 43 41 39 37 35 34 34 33 32 32 32 33 33 34 35 35 36 38 39 41 41 42 43 44
32 33 34 35 37 39 40 41 42 44 45 46 46 48 49 49 48 47 45 42 40 37 35 34 34 33 33 32 33 32 32 32 33 34 34 35 36 38 40 41 42 43 43
33 34 35 37 40 42 43 44 45 46 47 47 47 49 50 49 48 46 44 41 39 36 35 34 34 32 32 32 33 32 32 33 33 33 34 34 35 37 38 40 41 43 43
36 37 38 41 42 43 45 46 47 48 48 49 50 51 50 49 48 45 43 41 38 36 34 34 33 32 31 32 32 32 32 32 32 32 32 33 34 36 38 39 40 42 43
40 41 42 44 45 47 48 47 49 50 51 51 52 52 50 49 47 43 41 40 38 36 35 34 33 32 32 31 31 31 32 31 31 31 32 32 33 34 36 38 39 41 43
43 45 46 48 49 49 49 50 52 53 53 53 53 53 51 49 47 43 40 39 38 36 34 34 33 32 32 31 31 30 30 29 30 30 30 30 31 32 34 36 38 40 42
46 48 50 52 51 51 51 52 53 54 55 55 54 53 50 47 46 43 41 39 37 35 34 33 33 32 31 31 30 30 29 29 29 29 30 30 30 31 32 34 36 38 41
49 51 52 53 54 54 53 54 55 55 54 53 53 52 49 46 44 42 40 39 37 36 34 33 32 31 30 29 29 29 29 28 28 28 28 29 29 30 32 33 35 37 39
51 53 54 55 55 55 56 56 55 55 53 51 51 49 47 45 43 41 39 38 37 35 33 32 31 30 29 28 28 27 27 27 27 27 27 28 28 29 30 31 33 35 37
53 54 55 56 57 57 58 57 57 55 54 51 49 47 45 43 41 39 38 36 35 33 32 31 30 29 28 27 27 26 26 26 26 25 25 26 26 27 28 29 32 34 36
55 56 57 58 58 58 58 58 57 55 54 51 48 46 43 41 39 38 36 35 33 32 31 30 29 28 28 27 26 26 26 25 25 24 24 24 23 24 25 27 29 32 35
57 58 59 60 60 60 59 59 57 55 53 49 46 43 41 39 37 36 34 33 32 30 30 29 28 27 27 27 26 26 26 25 25 25 24 23 23 23 23 25 27 29 33
60 61 61 61 62 61 60 59 57 54 51 47 44 42 39 37 35 34 32 31 30 29 29 28 28 27 27 27 26 26 25 25 24 24 23 22 22 23 23 24 26 28 31
63 63 63 63 63 62 60 58 55 52 48 45 41 38 36 35 34 32 30 30 29 28 28 28 27 27 27 26 25 25 24 23 22 21 21 22 22 22 23 24 25 27 30
65 65 65 64 63 61 58 55 51 48 44 41 37 35 33 32 31 30 29 29 28 28 28 28 27 27 26 25 24 24 23 22 21 21 21 21 21 22 22 23 24 26 29
66 65 64 63 60 57 54 50 46 42 40 37 34 32 30 30 28 27 27 27 27 28 27 27 26 26 25 24 23 23 21 21 20 20 20 20 20 21 22 23 24 25 28
63 62 60 57 54 51 47 44 40 36 35 33 30 28 27 26 26 25 25 25 26 25 25 25 24 24 23 22 21 21 20 19 19 18 18 18 18 19 20 22 23 25 27
57 54 52 49 45 41 37 35 32 30 29 26 25 25 25 24 24 24 24 23 23 23 23 22 22 21 21 20 19 18 18 18 18 17 17 17 17 18 19 21 22 23 26
49 46 43 39 35 31 29 27 24 23 22 22 22 22 22 21 21 21 22 21 21 21 21 20 20 20 19 18 18 17 17 17 16 15 15 15 15 17 18 19 21 22 24
Wind_Direction
324 324 323 323 322 322 322 321 321 320 320 320 320 320 319 318 316 313 311 309 306 303 299 295 291 288 285 281 279 276 274 272 269 266 264 262 259 256 252 249 247 244 242
319 320 319 319 320 320 321 321 320 320 320 320 320 320 319 318 316 315 312 310 307 304 300 296 292 288 285 281 278 275 272 270 268 265 263 261 259 256 253 250 247 245 243
316 317 317 317 317 317 319 319 319 319 319 320 320 320 320 319 318 316 314 311 309 305 302 298 294 289 284 281 277 275 272 269 267 264 262 260 258 256 253 250 247 245 243
314 315 316 315 315 316 317 318 317 317 318 318 320 321 321 320 319 318 315 313 310 306 303 299 294 290 286 282 279 275 272 269 266 264 262 260 258 255 253 249 246 244 242
313 314 315 314 314 314 315 316 316 317 318 318 319 321 322 322 321 319 317 314 311 307 303 300 295 291 288 283 280 276 273 270 267 265 262 260 258 255 252 249 246 243 241
311 313 313 313 313 313 314 314 314 316 317 318 319 321 322 322 321 320 318 315 311 308 304 300 297 293 288 284 280 277 274 271 268 265 263 260 258 255 251 248 246 242 240
309 311 311 312 312 313 313 313 313 315 316 317 318 320 321 321 321 320 318 316 312 308 305 301 297 294 289 284 281 279 276 273 270 266 263 260 257 254 251 248 245 241 239
307 309 310 311 311 312 312 312 314 314 315 318 318 320 321 321 320 320 318 316 312 309 305 302 298 294 290 286 283 281 278 275 272 268 264 261 257 253 251 248 244 241 238
305 307 309 310 311 311 312 313 313 314 316 317 319 320 321 321 320 319 317 315 312 309 305 302 299 295 291 288 285 283 280 277 274 270 266 262 259 255 251 247 244 240 237
305 307 308 310 311 311 312 313 314 314 316 317 318 320 321 321 320 318 316 313 311 309 306 303 300 296 293 290 287 284 281 278 274 271 268 263 259 255 251 247 244 240 236
305 306 307 309 310 310 313 315 315 317 317 317 318 320 320 319 318 316 314 313 311 309 306 303 300 297 294 291 288 285 282 279 275 272 269 265 260 256 251 247 243 240 236
304 306 307 308 309 310 313 314 315 316 316 316 317 317 318 317 316 315 313 311 310 308 306 303 300 297 295 293 290 286 283 279 275 272 269 266 261 257 251 247 243 239 235
302 304 305 308 308 309 311 312 313 315 315 315 315 315 316 316 315 314 312 310 309 308 306 303 300 297 296 294 291 287 284 280 276 272 269 266 263 257 251 247 243 239 235
301 302 303 305 307 308 309 309 311 312 313 313 313 314 314 313 312 311 310 309 309 307 305 303 301 298 296 294 290 287 285 282 278 274 270 266 262 257 252 247 243 240 236
299 300 301 302 304 306 307 307 309 310 310 310 311 311 311 311 310 309 309 309 309 308 306 304 301 298 297 295 291 287 284 282 278 276 273 268 263 258 252 247 243 238 235
298 299 300 301 302 303 304 306 307 307 307 307 307 307 307 307 306 307 307 307 307 307 306 304 302 299 297 296 293 289 286 284 280 275 273 270 264 257 251 246 241 236 232
297 298 299 300 301 301 302 304 304 305 305 305 304 304 304 303 303 304 304 304 305 305 305 304 303 300 298 297 294 291 289 285 281 277 274 271 264 257 250 246 241 235 230
297 297 298 298 299 299 300 301 301 302 303 303 302 301 301 301 301 301 301 303 303 303 304 304 303 301 299 296 294 291 289 286 282 278 275 271 264 258 252 246 239 233 229
296 296 296 297 297 298 298 298 298 299 299 299 299 298 298 298 299 299 299 300 301 301 302 302 302 301 299 296 294 292 290 286 281 277 273 268 263 258 252 246 239 232 227
295 295 295 295 295 295 295 295 295 296 296 295 295 295 294 294 296 296 297 298 299 299 300 300 300 300 299 297 295 293 290 286 281 277 271 266 262 256 250 245 239 231 226
294 294 294 293 293 293 293 293 292 292 292 291 290 290 290 290 292 294 295 297 298 298 298 298 299 299 299 297 294 292 290 287 281 276 271 265 260 256 249 243 238 230 225
295 294 293 293 292 292 291 291 290 290 289 288 285 284 285 287 289 291 292 294 296 297 297 297 297 298 299 298 295 292 290 286 279 275 273 266 259 252 246 241 235 230 226
295 294 293 292 291 290 288 287 287 285 282 282 282 282 282 283 285 287 288 291 295 297 298 298 298 298 298 297 296 294 290 284 278 274 272 265 256 249 244 239 234 230 226
296 295 294 293 291 289 286 284 281 277 276 277 275 275 277 279 283 285 287 291 295 297 299 300 300 299 299 297 296 294 289 284 278 274 270 263 255 247 242 236 231 227 224
298 297 296 293 291 288 283 280 276 270 269 271 271 272 273 276 280 283 286 290 293 297 300 302 303 302 301 299 297 294 290 284 279 275 269 262 253 245 240 234 228 224 220
300 299 298 295 290 283 278 273 268 264 262 262 263 265 268 272 276 281 285 289 292 296 300 302 304 303 302 300 297 295 292 287 281 275 267 259 250 240 235 229 221 217 215
Height
5841 5839 5837 5835 5832 5829 5826 5823 5820 5816 5813 5810 5806 5802 5799 5795 5791 5787 5783 5779 5775 5771 5767 5765 5762 5759 5757 5755 5754 5753 5752 5752 5753 5755 5755 5756 5759 5762 5765 5769 5773 5777 5782
5838 5836 5833 5831 5828 5825 5822 5818 5815 5811 5808 5804 5800 5796 5792 5787 5782 5778 5773 5768 5764 5760 5756 5752 5749 5746 5744 5742 5740 5740 5739 5739 5740 5742 5742 5743 5745 5748 5752 5756 5761 5765 5770
5834 5832 5829 5826 5823 5820 5816 5813 5809 5805 5801 5797 5793 5788 5784 5779 5773 5768 5763 5758 5753 5748 5743 5739 5736 5733 5731 5728 5727 5726 5725 5725 5726 5728 5730 5731 5733 5735 5739 5743 5748 5753 5758
5829 5827 5824 5821 5818 5814 5811 5807 5803 5799 5795 5790 5785 5780 5775 5770 5764 5758 5752 5747 5741 5736 5731 5726 5723 5720 5717 5715 5714 5713 5712 5713 5713 5714 5716 5718 5720 5722 5726 5730 5735 5740 5746
5824 5821 5818 5815 5812 5808 5804 5800 5796 5792 5787 5782 5777 5772 5766 5760 5754 5748 5741 5735 5729 5724 5719 5714 5710 5708 5705 5703 5702 5701 5700 5700 5700 5701 5703 5705 5707 5709 5713 5717 5722 5727 5733
5818 5815 5812 5808 5805 5801 5797 5793 5789 5784 5779 5774 5768 5762 5756 5749 5743 5736 5730 5724 5718 5712 5707 5703 5699 5696 5694 5692 5690 5689 5689 5689 5689 5689 5691 5693 5695 5697 5700 5704 5709 5715 5722
5812 5808 5805 5802 5798 5794 5789 5785 5781 5776 5771 5765 5759 5753 5746 5739 5732 5725 5719 5713 5707 5701 5697 5692 5688 5685 5683 5682 5680 5679 5678 5677 5677 5678 5679 5681 5682 5685 5688 5692 5696 5702 5709
5805 5801 5798 5794 5790 5786 5782 5777 5772 5767 5761 5755 5749 5743 5736 5729 5722 5715 5708 5702 5696 5691 5686 5682 5678 5675 5673 5671 5670 5669 5667 5667 5666 5666 5668 5669 5670 5672 5676 5680 5684 5690 5697
5797 5794 5790 5786 5782 5777 5773 5768 5762 5757 5751 5745 5739 5732 5726 5718 5711 5704 5698 5692 5686 5681 5676 5672 5668 5666 5663 5661 5659 5658 5657 5656 5655 5655 5656 5657 5659 5661 5664 5668 5673 5678 5685
5789 5785 5782 5777 5773 5768 5763 5757 5752 5746 5740 5734 5728 5722 5715 5708 5701 5694 5687 5682 5677 5672 5667 5663 5659 5656 5653 5651 5649 5647 5646 5645 5644 5644 5645 5646 5647 5649 5652 5656 5660 5666 5672
5780 5776 5772 5768 5763 5758 5753 5747 5741 5735 5729 5723 5717 5711 5704 5697 5690 5684 5677 5672 5667 5662 5658 5654 5650 5647 5644 5641 5639 5637 5635 5634 5634 5634 5634 5635 5636 5638 5640 5644 5648 5653 5660
5770 5766 5762 5757 5752 5747 5742 5736 5731 5724 5719 5712 5706 5700 5693 5687 5680 5674 5668 5662 5657 5653 5648 5644 5640 5637 5634 5631 5629 5627 5625 5624 5623 5623 5623 5624 5625 5626 5628 5632 5636 5641 5647
5759 5755 5751 5746 5741 5736 5730 5725 5719 5713 5707 5701 5695 5689 5682 5675 5669 5664 5658 5653 5648 5643 5639 5635 5631 5627 5624 5621 5619 5617 5615 5614 5613 5613 5613 5613 5613 5615 5617 5620 5624 5629 5635
5749 5744 5739 5734 5729 5724 5719 5714 5708 5702 5695 5689 5682 5676 5670 5664 5658 5653 5648 5643 5638 5634 5630 5626 5622 5618 5615 5612 5609 5607 5605 5604 5603 5602 5602 5602 5602 5604 5606 5609 5613 5617 5623
5737 5732 5727 5722 5717 5712 5707 5702 5696 5690 5683 5677 5670 5664 5659 5654 5648 5642 5637 5633 5628 5624 5620 5616 5612 5609 5606 5602 5600 5597 5596 5594 5593 5592 5592 5592 5592 5593 5595 5598 5602 5606 5612
5724 5719 5714 5709 5704 5698 5693 5689 5683 5678 5672 5666 5659 5653 5648 5643 5637 5632 5628 5623 5619 5614 5610 5607 5603 5600 5597 5594 5591 5588 5586 5585 5583 5583 5582 5582 5582 5583 5585 5587 5591 5595 5601
5710 5705 5700 5694 5689 5684 5679 5674 5669 5664 5658 5653 5648 5643 5638 5633 5628 5623 5618 5614 5610 5605 5602 5598 5594 5591 5588 5585 5582 5580 5578 5576 5574 5573 5573 5572 5572 5573 5575 5577 5581 5585 5591
5696 5690 5685 5680 5674 5669 5664 5659 5654 5649 5644 5640 5636 5631 5627 5622 5618 5613 5609 5605 5601 5597 5593 5590 5586 5583 5580 5577 5574 5572 5570 5568 5566 5565 5564 5564 5564 5565 5566 5568 5572 5576 5581
5680 5674 5669 5664 5658 5653 5648 5643 5638 5634 5630 5626 5622 5619 5615 5611 5607 5603 5599 5596 5592 5589 5585 5581 5578 5575 5572 5569 5566 5563 5561 5559 5557 5556 5556 5556 5556 5557 5558 5561 5563 5567 5572
5663 5658 5652 5646 5641 5636 5631 5627 5622 5618 5615 5612 5609 5606 5603 5599 5596 5593 5590 5587 5583 5580 5577 5573 5570 5567 5564 5561 5558 5555 5553 5551 5549 5548 5548 5548 5548 5549 5551 5553 5556 5560 5564
5644 5639 5633 5628 5622 5618 5613 5609 5606 5603 5600 5597 5595 5593 5590 5587 5586 5583 5581 5578 5575 5572 5569 5565 5562 5559 5556 5552 5549 5547 5545 5543 5541 5540 5540 5540 5541 5542 5544 5546 5549 5552 5557
5623 5618 5613 5607 5602 5598 5594 5591 5589 5587 5585 5583 5582 5580 5579 5577 5575 5574 5572 5569 5566 5563 5560 5557 5554 5551 5548 5545 5542 5539 5537 5535 5534 5533 5533 5533 5533 5534 5536 5539 5542 5545 5549
5601 5596 5591 5586 5582 5578 5576 5573 5572 5571 5570 5570 5569 5568 5568 5567 5566 5564 5563 5561 5558 5555 5552 5549 5546 5543 5540 5537 5534 5532 5530 5528 5527 5526 5526 5526 5526 5528 5529 5532 5535 5538 5542
5580 5574 5569 5565 5561 5559 5557 5556 5556 5556 5556 5557 5557 5558 5558 5558 5557 5556 5554 5553 5550 5548 5545 5542 5539 5536 5533 5530 5528 5525 5523 5522 5521 5520 5519 5519 5520 5521 5523 5525 5528 5532 5536
5561 5555 5550 5546 5543 5542 5540 5541 5541 5543 5545 5546 5547 5548 5549 5549 5549 5548 5547 5545 5543 5541 5538 5535 5532 5529 5526 5524 5522 5519 5518 5516 5515 5514 5513 5514 5514 5516 5517 5520 5522 5526 5530
5544 5539 5535 5531 5529 5528 5528 5529 5530 5533 5535 5536 5538 5539 5540 5541 5541 5541 5540 5538 5536 5534 5532 5529 5527 5524 5521 5518 5516 5514 5512 5510 5509 5508 5508 5508 5509 5510 5512 5514 5518 5521 5525